Find Starlink 3784

NORAD ID: 52275 Int'l Des: 2022-041 Owner: SPXS Country: US Constellation: starlink operational
LEOCIRCULAR

当前视图

正在加载3D地球...

About Starlink 3784

Starlink 3784 (NORAD 52275) is a starlink constellation satellite (v1.5) launched Apr 21, 2022 by SPXS of US. It operates in LEO, CIRCULAR orbit with a mass of 297.00 kg.

关于 Starlink 3784

正在加载描述...

即将过境

Passes for default location (London). Set your location on the main map for personalized predictions.

高度历史

Loading altitude history...

两行轨道根数

1 52275U 22041Q 26167.91011447 .00000041 00000-0 20690-4 0 9995
2 52275 53.1595 23.6063 0001357 84.6410 275.4736 15.08831097229346
Epoch: Jun 16, 2026 • Age: 19 hours

当前状态

高度 541.5 km
速度 7.59 km/s
星下点 -4.96°S, 143.02°W
发射日期 Apr 21, 2022
运行时间 4.1 years
类型 internet

技术详情

分类 Payload
质量 297.00 kg
干质量 275.00 kg
总质量 297.00 kg
长度 0.20 m
直径 2.80 m
跨度 9.00 m
形状 Box + pan
制造商 SPXS
平台类型 Starlink
阶段状态 In Orbit
所有者/国家 SPXS/US

Most Searched